Overview Statistics Trail Chart Weather Telemetry Raw packets
 

This is the latest recevied weather packets stored in our database for station/object KBTL-WX. If no packets are shown the sender has not sent any weather packets the latest 10 day(s).

<< 16 17 18 19 20 21 22 >>
Time Temp. Humidity Pressure Rain* Wind** Luminosity Snow
1777566630 8.89° C 63% 982.6 hPa 0 mm - - -
1777565713 8.89° C 63% 982.6 hPa 0 mm - - -
1777564838 8.33° C 63% 982.6 hPa 0 mm - - -
1777563912 8.33° C 71% 982.6 hPa 0 mm - - -
1777563032 7.78° C 71% 983 hPa 0 mm - - -
1777562114 7.78° C 71% 983 hPa 0 mm - - -
1777561233 7.22° C 71% 983 hPa 0 mm - - -
1777560314 7.22° C 78% 981.8 hPa 0 mm - - -
1777559434 6.67° C 77% 983.4 hPa 0 mm - - -
1777558514 6.67° C 77% 983.4 hPa 0 mm - - -
1777557640 6.67° C 77% 983.4 hPa 0 mm - - -
1777556714 6.11° C 81% 982.9 hPa 0 mm - - -
1777555832 6.11° C 81% 982.9 hPa 0 mm - - -
1777554913 5.56° C 81% 982.9 hPa 0 mm - - -
1777554039 5.56° C 81% 982.9 hPa 0 mm - - -
1777553114 5° C 83% 981.5 hPa 0 mm - - -
1777552226 5° C 84% 982.6 hPa 0 mm - - -
1777551314 4.44° C 84% 982.6 hPa 0 mm - - -
1777550440 3.89° C 84% 982.6 hPa 0 mm - - -
1777549514 3.89° C 90% 981.5 hPa 0 mm - - -
1777548632 3.33° C 92% 982.4 hPa 0 mm - - -
1777547712 3.33° C 92% 982.4 hPa 0 mm - - -
1777546835 3.33° C 92% 982.4 hPa 0 mm - - -
1777545912 3.33° C 92% 981.7 hPa 0 mm - - -
1777545030 3.33° C 91% 982.5 hPa 0 mm - - -

* Rain latest hour (hover to see other rain measurements)
** Current wind speed in m/s (hover to see current wind gust speed)